www.pogodaiklimat.ru

Погода и климат >> Архив погоды >> Мексика >> Puerto Angel


ПОГОДА в Puerto Angel

  • Прогноз погоды в Puerto Angel
  • Монитор погоды в Puerto Angel
  • Климат города

АРХИВ ПОГОДЫ в Puerto Angel

Время (UTC), дата Ветер
(напр.,м/с)
 
Видим.   Явления Облачность Т
(С)
Тd
(С)
f
(%)
Тe
(С)
Тes
(С)
Комфортность P
(гПа)
Po
(гПа)
Тmin
(С)
Tmax
(С)
R
(мм)
R24
(мм)
S
(см)
03 10.12 В 2 30 км 1/1 600 м
[Cu med, cong]
+27.6 +20.5 65 +34 +34 очень
душно
1011.6 1006.7 +20.6 +32.4
12 10.12 В 3 20 км ясно +22.4 +17.6 74 +27 +27 душно 1015.9 1010.9 +21.0 +32.4
15 10.12 В 4 30 км ясно +24.6 +15.3 56 +28 +31 душно 1016.4 1011.4
18 10.12 Ю 2 20 км ясно +29.6 +18.9 53 +35 +48 очень
душно
1015.5 1010.5 +21.0 +30.2
21 10.12 Ю 2 20 км ясно +29.6 +18.9 53 +35 +43 очень
душно
1015.5 1010.5 +21.0 +30.2
12 11.12 СВ 2 20 км ясно +19.4 +15.6 79 +22 +22 комфорт 1015.8 1010.8 +18.6 +31.0
15 11.12 С 2 30 км 5/0
[Cs]
+21.8 +15.9 69 +25 +29 комфорт 1016.3 1011.3
18 11.12 Ю 2 30 км 8/0
[Cs]
+28.0 +17.3 52 +32 +43 душно 1015.6 1010.6 +18.6 +28.6
21 11.12 СЗ 3 30 км 8/1 600 м
[Cu med, cong Cs]
+30.8 +17.2 44 +35 +39 очень
душно
1013.0 1008.0
00 12.12 СЗ 1 30 км 6/1 600 м
[Cu med, cong Cs]
+26.6 +20.6 70 +33 +33 очень
душно
1012.8 1007.9 +18.6 +31.6
03 12.12 СВ 2 30 км ясно +21.6 +18.9 85 +26 +26 душно 1013.8 1008.8
06 12.12 СВ 3 30 км ясно +20.4 +17.7 84 +24 +24 комфорт 1014.2 1009.2 +18.6 +31.6
12 12.12 В 3 30 км ясно +22.4 +19.5 84 +28 +28 душно 1013.9 1008.9 +21.2 +31.6
15 12.12 Ю 2 30 км 3/1 600 м
[Cu med, cong Cs]
+26.0 +11.9 41 +27 +31 жарко 1015.3 1010.3
18 12.12 ЮЗ 2 30 км 3/1 600 м
[Cu med, cong Cs]
+29.0 +20.8 61 +36 +47 очень
душно
1014.8 1009.8 +21.2 +29.4
21 12.12 З 2 30 км ясно +29.6 +21.5 62 +38 +45 очень
душно
1012.0 1007.0
00 13.12 С 2 30 км ясно +26.8 +20.2 67 +33 +33 очень
душно
1011.8 1006.9 +21.2 +30.8
03 13.12 СЗ 4 20 км ясно +23.2 +20.3 84 +30 +30 очень
душно
1012.6 1007.7
06 13.12 В 2 30 км ясно +21.8 +19.5 87 +27 +27 душно 1012.8 1007.9 +21.2 +30.8
12 13.12 СВ 3 30 км 9/1 600 м
[Cu med, cong Ac As Cs]
+20.6 +19.4 93 +25 +25 комфорт 1012.7 1007.7 +19.6 +30.8
18 13.12 СЗ 2 30 км 4/1 600 м
[Cu med, cong Ac As Cs]
+29.2 +22.5 67 +38 +48 очень
душно
1014.3 1009.3 +19.6 +29.6
00 14.12 СЗ 2 30 км ясно +27.2 +12.5 40 +29 +29 жарко 1011.4 1006.4 +19.6 +31.0
03 14.12 С 2 20 км ясно +23.4 +21.4 89 +32 +32 очень
душно
1012.7 1007.8
06 14.12 С 2 20 км ясно +22.4 +21.0 92 +29 +29 очень
душно
1012.9 1008.0 +19.6 +31.0
15 14.12 Ю 1 30 км 1/1 600 м
[Cu med, cong]
+24.0 +19.6 76 +29 +34 душно 1012.9 1007.9
18 14.12 Ю 2 30 км ясно +29.0 +22.0 66 +37 +51 опасность
солнечного
удара
1012.9 1007.9 +19.6 +30.0
21 14.12 З 2 30 км ясно +31.4 +22.6 60 +41 +49 опасность
перегрева
1010.6 1005.6
00 15.12 З 2 30 км 1/1 600 м
[Cu med, cong]
+29.0 +22.6 68 +38 +38 очень
душно
1010.1 1005.2 +19.6 +32.4
03 15.12 С 2 20 км ясно +24.4 +22.4 89 +32 +32 очень
душно
1011.7 1006.8
06 15.12 С 1 20 км ясно +23.6 +21.9 90 +30 +30 очень
душно
1012.1 1007.2 +19.6 +32.4
15 15.12 С 2 30 км 1/1 600 м
[Cu med, cong]
+25.0 +20.4 76 +31 +35 очень
душно
1012.5 1007.5
21 15.12 ЮВ 2 30 км 1/1 600 м
[Cu med, cong]
+31.0 +24.2 67 +43 +50 опасность
перегрева
1010.6 1005.7
00 16.12 З 2 30 км 1/1 600 м
[Cu med, cong]
+28.0 +23.9 78 +39 +39 очень
душно
1010.2 1005.3 +20.0 +32.0
03 16.12 С 3 20 км ясно +23.8 +22.4 92 +31 +31 очень
душно
1011.8 1006.9
06 16.12 СЗ 2 20 км ясно +23.4 +22.0 92 +32 +32 очень
душно
1012.2 1007.3 +20.0 +32.0
12 16.12 С 1 30 км ясно +22.6 +21.5 94 +30 +30 очень
душно
1012.6 1007.6 +21.0 +32.0
15 16.12 ЮВ 2 30 км ясно +26.0 +21.8 78 +33 +38 очень
душно
1012.9 1008.0
18 16.12 Ю 2 30 км ясно +31.0 +23.6 65 +42 +55 опасность
перегрева
1012.6 1007.6 +21.0 +31.0
21 16.12 ЮЗ 2 30 км ясно +32.0 +23.9 62 +43 +51 опасность
перегрева
1010.4 1005.5

 

Местоположение метеостанции Puerto Angel (Мексика): широта 15.68 долгота -96.48 высота над уровнем моря 46 м.

В архиве по умолчанию представлена погода в Puerto Angel за последнюю неделю. Архивные данные за месяц целиком и за предыдущие месяцы, начиная с января 2011 года, Вы можете получить, выбрав интересующий диапазон дат из раскрывающегося списка и нажав кнопку "Ввод!".

Внимание! Время в таблицах - всемирное. Для получения местного времени необходимо прибавить поправку, которая в Puerto Angel равна -6 ч.

Смотрите также архив погоды в соседних городах и на ближайших метеорологических станциях:

Погода в Salina Cruz (Мексика) (149 км)
Погода в Oaxaca (Мексика) (154 км)
Погода в Huajuapan De Leon (Мексика) (273 км)
Погода в Arriaga (Мексика) (283 км)
Погода в Coatzacoalcos (Мексика) (350 км)
Погода в Orizaba (Мексика) (359 км)
Погода в Cordoba-In-Veracruz (Мексика) (361 км)
Погода в Tuxtla Gutierrez (Мексика) (377 км)
Погода в Chilpancingo (Мексика) (383 км)
Погода в Verakruz (Мексика) (388 км)

Пояснения к столбцам:

Ветер - указаны скорость ветра в м/с - средняя за 10 мин, порывы в срок и между сроками (в фигурных скобках) и направление, откуда дует ветер: С - северный, СВ - северо-восточный, В - восточный, ЮВ - юго-восточный, Ю - южный, ЮЗ - юго-западный, З - западный, СЗ - северо-западный.
Видимость - горизонтальная дальность видимости в метрах или километрах. При видимости от 1 до 10 км при отсутствии осадков обычно наблюдается дымка, при ухудшении видимости до 1 км и менее - туман. В сухую погоду видимость может ухудшаться дымом, пылью или мглою.
Явления - указаны атмосферные явления, наблюдавшиеся в срок или в последний час перед сроком; фигурными скобками обозначены явления, наблюдавшиеся между сроками (за 1-3 часа до срока); квадратными скобками обозначены град или гололедные отложения с указанием их диаметра в мм.
Облачность - указаны через наклонную черту общая и нижняя облачность в баллах и высота нижней границы облаков в метрах; квадратными скобками обозначены формы облаков: Ci - перистые, Cs - перисто-слоистые, Cc - перисто-кучевые, Ac - высококучевые, As - высокослоистые, Sc - слоисто-кучевые, Ns - слоисто-дождевые, Cu - кучевые, Cb - кучево-дождевые. Подробнее классификацию облаков см. в Атласе облаков (PDF).
T - Температура воздуха - температура, измеренная на высоте 2 м над землей.
Td - Температура точки росы - температура, при понижении до которой содержащийся в воздухе водяной пар достигнет насыщения.
f - Относительная влажность воздуха - влажноcть воздуха, измеренная на высоте 2 м над землей.
Te - Эффективная температура - температура, которую ощущает одетый по сезону человек в тени. Характеристика душности погоды. При расчете учитывается влияние влажности воздуха и скорости ветра на теплоощущения человека.
Tes - Эффективная температура на солнце - температура, которую ощущает человек, с поправкой на солнечный нагрев. Характеристика знойности погоды. Зависит от высоты солнца над горизонтом, облачности и скорости ветра. Ночью, в пасмурную погоду, а также при ветре 12 м/с и более поправка равна нулю.
P - Атмосферное давление - приведенное к уровню моря атмосферное давление.
Po - Атмосферное давление - измеренное на уровне метеостанции атмосферное давление.
Tmin - Минимальная температура - минимум температуры воздуха на высоте 2 м над землей.
Tmax - Максимальная температура - максимум температуры воздуха на высоте 2 м над землей.
R - Количество осадков - Количество выпавших осадков за период времени, мм. При наведении курсора мыши на число - период времени, за который выпало указанное количество осадков.
R24 - Количество осадков - Количество выпавших осадков за 24 часа, мм.
S - Снежный покров - Высота снежного покрова, см. При наведении курсора мыши на число - состояние снежного покрова и степень покрытия местности в баллах.